Showing default

YAOGAN-39 04B, 58143

Orbit data source: Space-Track

YAOGAN-39 04B, 58143 is a payload satellite owned by PLA GAD (CN) in LEO that was launched on Mon, 23 Oct 2023 UTC via a CHANG ZHENG 2D launch vehicle from the Xichang Space Center, China (XSC). Payload-class satellites include a variety of spacecraft equipped with specific instruments for various scientific and technological missions. These include communications satellites like Starlink; space stations such as the ISS; scientific satellites like the Hubble; Earth observation satellites from companies like Planet Labs, Umbra, and HawkEye 360; GPS; miniature CubeSats for education and research; and military/defense satellites.

Loading next visibility...
Identifier
58143, 2023-163C
Orbit
LEO
Country
Flag of CNCN / PRC
Related business
Manufacturer
SAST
Mission
Operational Defense Sigint
Bus & Motor
Unknown
Mass
~300 kg wet, ~300 kg dry
Launch date (UTC)
2023-10-23 (2 years ago)
Launch vehicle
CHANG ZHENG 2D
Launch site
Xichang Space Center, China (XSC)
Object type
Payload
Rocket body
Debris
Shape & HBR
Box + 2 Pan, 2.5 m
Radar Cross Section
11.063 m², Large (>1 m²)

Expand to show TLE details & history
Last TLE update: 19 hours ago

TLE from 19 hours ago
0 YAOGAN-39 04B
1 58143U 23163C   25259.47307397  .00007599  00000-0  37104-3 0  9997
2 58143  34.9951 275.3048 0008435 246.4489 113.5338 15.17541032105717
Epoch: 2025-09-16T11:21Z
TLE epoch observation values (Epoch: 2025-09-16T11:21:13.591Z)
Latitude
Longitude
109.3353°
Altitude
514.509 km
Speed
7.607 km/s
True Right ascension
18h 21m 13s
True Declination
0° 00' 00"
Sunlit
Object was in daylight at epoch
Visualization orbit readout
Latitude
Unknown
Longitude
Unknown
Altitude
Unknown
Speed
Unknown
Apparent Right ascension
Unknown
Apparent Declination
Unknown
Sunlit
N/A
Visualization observer readout
Local Sidereal Time
22:47:32
Azimuth
Unknown
Elevation
Unknown
Doppler factor
Unknown
Orbital elements
Apogee altitude
522.334 km
Perigee altitude
510.702 km
Semi-major axis
6,894.655 km
Eccentricity
0.00084
Inclination
34.9951°
RAAN
275.3048°
Arg. of periapsis
246.4489°
True anomaly
113.62238°
Mean anomaly
113.5338°
Eccentric anomaly
113.57809°
Mean motion
3.79118 °/min
Orbital period
94.96 mins
BSTAR
0.00037104
Loading maneuver chart data...
Computing Atmospheric mass density...
Loading historical data...
Loading historical data...
Loading historical data...
Loading historical data...
Loading historical data...
Loading historical data...
Loading historical data...
Other satellites on launch #163 in the year 2023 (2023-10-23 UTC)

Documentation

Showing up to 5 results
|